Казанбулак

Azerbaijan     40˚37′58″N   46˚40′58″E
temp.,
°C
wind,
m/s
gust,
m/s
humid.,
%
clouds,
%
prec.,
mm/h
press.,
hPa
HPBL,
m
28 november, sat
sat2801:00+5˚se23847 0.0 103452
04:00+4˚wnw128820 0.0 103325
07:00+4˚wnw348585 0.0 1032117
10:00+6˚wnw337881 0.0 1032199
13:00+9˚n11620 0.0 1030754
16:00+9˚ene11543 0.0 1028889
19:00+7˚e11662 0.0 102922
22:00+6˚nw117139 0.0 103022
29 november, sun
sun2901:00+6˚nw237199 0.0 102925
04:00+5˚wnw447172 0.0 102964
07:00+4˚wnw457417 0.0 102894
10:00+6˚nw456450 0.0 1028224
13:00+10˚nw444991 0.0 1026516
16:00+10˚nw224794 0.0 1025511
19:00+9˚nw1155100 0.0 102622
22:00+9˚se3455100 0.0 1027211
30 november, mon
mon3001:00+8˚w0163100 0.0 102755
04:00+8˚wnw3562100 0.0 1026265
07:00+7˚wnw4570100 0.0 1026315
10:00+8˚wnw3366100 0.0 1026314
13:00+10˚ene226096 0.0 1024845
16:00+11˚ese445596 0.0 10241037
19:00+8˚ese687897 0.0 1025389
22:00+7˚ese598375 0.0 1025356
1 december, tue
tue101:00+6˚ese478675 0.0 1025228
04:00+6˚ese478188 0.0 1024381
07:00+7˚se5779100 0.0 1024426
10:00+7˚ese457697 0.0 1024391
13:00+9˚se336885 0.0 1023610
16:00+10˚sse116369 0.0 1022776
19:00+8˚ese22717 0.0 102422
22:00+7˚ese23764 0.0 102545
2 december, wed
wed201:00+5˚se12842 0.0 102622
04:00+4˚ne00902 0.0 102522
07:00+4˚wnw128918 0.0 102522
10:00+7˚w00739 0.0 1026102
13:00+10˚e11600 0.0 1024628
16:00+11˚ese11550 0.0 1023735
19:00+9˚se34650 0.0 102562
22:00+7˚se33730 0.0 102747